Flag Weather past 2 weeks in Brownsville, Texas, U.S.A.

Now
48 °F

Fog.


Feels Like: 48 °F
Forecast: 52 / 74 °F
Wind: No wind

Location: Brownsville / South Padre Island International Airport

Current Time: Nov 27, 2014 at 4:43:58 AM

Latest Report: Nov 27, 2014 at 3:53 AM


Visibility: 0 mi

Pressure: 30.32 "Hg

Humidity: 96%

Dew point: 47 °F

Location of BrownsvilleLocation

Historic Weather in Brownsville — Graph

°F

Brownsville temperature yesterday

Maximum temperature yesterday: 74 °F (at 2:53 PM)
Minimum temperature yesterday: 43 °F (at 3:53 AM)
Average temperature yesterday: 58 °F

Past Weeks' High & Low Weather Summary

 TemperatureHumidityPressure
High85 °F (Nov 23, 1:53 PM)100% (Nov 15, 6:53 AM)30.46 "Hg (Nov 15, 6:53 AM)
Low39 °F (Nov 13, 6:53 AM)33% (Nov 26, 12:53 PM)29.64 "Hg (Nov 23, 2:53 PM)
Average59 °F77%30.14 "Hg
* Reported Nov 12 2:53 AM — Nov 27 2:53 AM, Brownsville, Weather by CustomWeather, © 2014

Note: Actual official high and low records may vary slightly from our data, if they occured in-between our weather recording intervals... More about our weather records

Advertising

Brownsville weather history for previous 24 hours

 ConditionsComfort  
Time TempWeatherWind HumidityBarometerVisibility
2:53 AM
Nov 27
50 °FFog.No wind100%30.31 "Hg1 mi
1:53 AM52 °FFog.3 mph100%30.31 "Hg0 mi
12:56 AM54 °FFog.No wind97%30.31 "Hg1 mi
12:00 AM54 °FFog.3 mph97%30.32 "Hg3 mi
10:53 PM
Nov 26
54 °FClear.3 mph97%30.32 "Hg7 mi
9:53 PM54 °FClear.5 mph93%30.31 "Hg10 mi
8:53 PM54 °FClear.3 mph90%30.30 "Hg10 mi
7:53 PM56 °FClear.5 mph81%30.28 "Hg10 mi
6:53 PM59 °FClear.3 mph72%30.26 "Hg10 mi
5:53 PM60 °FClear.8 mph67%30.24 "Hg10 mi
4:53 PM69 °FSunny.8 mph47%30.23 "Hg10 mi
3:53 PM72 °FSunny.13 mph40%30.22 "Hg10 mi
2:53 PM74 °FSunny.14 mph35%30.22 "Hg10 mi
1:53 PM73 °FSunny.15 mph36%30.24 "Hg10 mi
12:53 PM73 °FSunny.14 mph33%30.27 "Hg10 mi
11:53 AM71 °FSunny.15 mph39%30.29 "Hg10 mi
10:53 AM69 °FSunny.14 mph41%30.32 "Hg10 mi
9:53 AM64 °FSunny.8 mph50%30.33 "Hg10 mi
8:53 AM57 °FSunny.5 mph78%30.33 "Hg10 mi
7:53 AM49 °FSunny.3 mph86%30.32 "Hg9 mi
6:53 AM45 °FClear.No wind86%30.29 "Hg10 mi
5:53 AM45 °FClear.No wind90%30.28 "Hg9 mi
4:53 AM46 °FClear.No wind86%30.27 "Hg9 mi
Weather by CustomWeather, © 2014

See weather overviewHow to use our weather pages